Tracking 26442 objects as of 7-Dec-2022
HD Live streaming from Space Station
objects crossing your sky now

NOAA 16 DEB

Track NOAA 16 DEB now!
10-day predictions


NORAD ID: 42368
Int'l Code: 2000-055RL
Perigee: 842.0 km
Apogee: 863.2 km
Inclination: 98.8 °
Period: 101.8 minutes
Semi major axis: 7223 km
RCS: Unknown
Launch date: September 21, 2000
Source: United States (US)
Launch site: AIR FORCE WESTERN TEST RANGE (AFWTR)

Note: This is SATELLITE DEBRIS
aabbcc
Your satellite tracking list
Your tracking list is empty




NASA's NSSDC Master Catalog

Two Line Element Set (TLE):
1 42368U 00055RL  22340.66452239  .00002403  00000-0  12842-2 0  9999
2 42368  98.7959  52.1903 0014639 177.1662 182.9596 14.14080811344194
Source of the keplerian elements: AFSPC